| DS18B20 | SHTC3 | ||||||
|---|---|---|---|---|---|---|---|
| ID | Date d/m/Y & Time | data1 สูง | data2 ต่ำ | data3 นอก | temp pcb | hum pcb | Time |
| 6916 | 29/03/2026 14:47:12 | 31.2  | 30.3  | 31.4  | 30.8  | 68.7  | 14:47 |
| 6915 | 29/03/2026 14:42:30 | 31.2  | 30.3  | 31.4  | 30.7  | 68.7  | 14:42 |
| 6914 | 29/03/2026 14:37:48 | 31.2  | 30.3  | 31.6  | 30.5  | 68.6  | 14:37 |
| 6913 | 29/03/2026 14:33:07 | 31.2  | 30.2  | 31.6  | 30.7  | 68.5  | 14:33 |
| 6912 | 29/03/2026 14:28:25 | 31.2  | 30.2  | 31.9  | 30.6  | 68.5  | 14:28 |
| 6911 | 29/03/2026 14:23:43 | 31.2  | 30.2  | 31.5  | 30.7  | 68.5  | 14:23 |
| 6910 | 29/03/2026 14:19:02 | 31.2  | 30.2  | 31.8  | 30.5  | 68.6  | 14:19 |
| 6909 | 29/03/2026 14:14:20 | 31.1  | 30.1  | 31.9  | 30.6  | 68.5  | 14:14 |
| 6908 | 29/03/2026 14:09:38 | 31.1  | 30.1  | 31.8  | 30.4  | 68.4  | 14:09 |
| 6907 | 29/03/2026 14:04:56 | 31.1  | 30.1  | 31.7  | 30.6  | 68.6  | 14:04 |
| 6906 | 29/03/2026 14:00:14 | 31.1  | 30.1  | 31.3  | 30.5  | 68.6  | 14:00 |
| 6905 | 29/03/2026 13:55:32 | 31.0  | 30.0  | 31.3  | 30.6  | 68.7  | 13:55 |
| 6904 | 29/03/2026 13:50:50 | 31.0  | 30.0  | 31.7  | 30.6  | 68.7  | 13:50 |
| 6903 | 29/03/2026 13:46:09 | 30.9  | 29.9  | 31.9  | 30.3  | 68.7  | 13:46 |
| 6902 | 29/03/2026 13:41:27 | 30.8  | 29.9  | 32.0  | 30.4  | 68.8  | 13:41 |
| 6901 | 29/03/2026 13:36:45 | 30.8  | 29.9  | 31.9  | 30.2  | 68.6  | 13:36 |
| 6900 | 29/03/2026 13:32:04 | 30.6  | 29.8  | 31.6  | 30.2  | 68.9  | 13:32 |
| 6899 | 29/03/2026 13:27:22 | 30.6  | 29.8  | 31.9  | 30.2  | 68.9  | 13:27 |
| 6898 | 29/03/2026 13:22:41 | 30.5  | 29.8  | 31.2  | 30.1  | 68.9  | 13:22 |
| 6897 | 29/03/2026 13:17:59 | 30.5  | 29.8  | 31.2  | 30.1  | 68.9  | 13:17 |
| 6896 | 29/03/2026 13:13:17 | 30.5  | 29.7  | 30.9  | 30.1  | 68.8  | 13:13 |
| 6895 | 29/03/2026 13:08:35 | 30.5  | 29.7  | 31.1  | 30.0  | 68.9  | 13:08 |
| 6894 | 29/03/2026 13:03:54 | 30.4  | 29.6  | 31.2  | 30.0  | 68.9  | 13:03 |
| 6893 | 29/03/2026 12:59:12 | 30.4  | 29.6  | 31.3  | 29.9  | 68.8  | 12:59 |